Hourly Data Report for August 01, 2019

TORONTO CITY
ONTARIO
Current Station Operator: ECCC - MSC

43°40'00.000" N
79°24'00.000" W
112.50 m
6158355
71508
XTO

Download Data

Hourly Data (August 2019)
Hourly Data Report for August 1, 2019
TIME
LST
Temp Definition
°C
Dew Point Definition
°C
Rel Hum Definition
%
Precip. Amount Definition
mm

Wind Dir Definition
10's deg

Wind Spd Definition
km/h
Visibility Definition
km
Stn Press Definition
kPa
Hmdx Definition


Wind Chill Definition


Weather Definition


00:00 19.4 10.6 57 0.0       100.63     LegendNANA
01:00 18.9 10.9 60 0.0       100.65     LegendNANA
02:00 18.4 11.1 62 0.0       100.67     LegendNANA
03:00 18.0 11.2 64 0.0       100.69     LegendNANA
04:00 18.5 10.3 59 0.0       100.70     LegendNANA
05:00 18.3 9.4 56 0.0       100.72     LegendNANA
06:00 18.2 9.2 56 0.0       100.73     LegendNANA
07:00 18.9 9.7 55 0.0       100.79     LegendNANA
08:00 21.4 9.1 45 0.0       100.84     LegendNANA
09:00 23.0 6.6 35 0.0       100.87     LegendNANA
10:00 24.1 7.1 34 0.0       100.89     LegendNANA
11:00 24.5 6.0 30 0.0       100.90     LegendNANA
12:00 24.0 6.9 33 0.0       100.90     LegendNANA
13:00 25.1 6.9 31 0.0       100.87 25   LegendNANA
14:00 25.2 6.4 30 0.0       100.82 25   LegendNANA
15:00 25.0 6.2 30 0.0       100.77 25   LegendNANA
16:00 25.3 7.3 32 0.0       100.73 25   LegendNANA
17:00 24.6 6.3 31 0.0       100.69     LegendNANA
18:00 24.1 6.8 33 0.0       100.66     LegendNANA
19:00 23.5 6.9 34 0.0       100.65     LegendNANA
20:00 21.9 8.1 41 0.0       100.66     LegendNANA
21:00 20.8 11.4 55 0.0       100.73     LegendNANA
22:00 20.6 11.9 57 0.0       100.71     LegendNANA
23:00 19.4 11.0 58 0.0       100.74     LegendNANA

Notes on Data Quality.

Legend

  • E = Estimated
  • M = Missing
  • NA = Not Available*
  • [empty] = Indicates an unobserved value
Date modified: